GSAT0204 (GALILEO 8)

Last updated on Thu Jul 03 2025 00:02:33 GMT+0000 (Coordinated Universal Time)

1 40545U 15017B 25182.69076601 -.00000097 00000+0 00000+0 0 9990 2 40545 56.8929 351.1636 0002252 228.9378 131.0440 1.70475827 26275
UTC large
Height (km)
Speed (km/s)
/
Latitude / Longitude
Inclination (degrees)
Orbital Period (minutes)
Azimuth
Elevation
Range (km)
Doppler Factor

Next 0 passes for location: London (51.5072 / 0.1276)

Sorry there are no passes over London.